[[{"header":{"parameterUnit":"m.s-1","parameterCategory":1,"la1":30.2992,"la2":30.254,"lo1":-89.0895,"lo2":-89.0443,"dy":0.0025,"dx":0.0025,"nx":19,"ny":19,"refTime":"2026-03-22T03:00:00:Z","depth":0,"parameterNumber":2,"parameterNumberName":"U-component_of_WINDS"},"data":[0,0,0,-0.5981,-0.5977,-0.579,-0.5789,-0.5552,-0.555,0,0,0,0,0,0,0,0,0,0,0,-0.6043,-0.6042,-0.5981,-0.5977,-0.579,-0.5789,-0.5553,-0.555,0,0,0,0,0,0,0,0,0,0,0,-0.6044,-0.6042,-0.6041,-0.5976,-0.579,-0.5789,-0.5553,-0.5692,0,0,0,0,0,0,0,0,0,0,-0.5873,-0.5938,-0.6043,-0.6041,-0.5975,-0.579,-0.5789,-0.5699,-0.5683,-0.564,0,-0.5607,0,-0.5575,-0.5535,-0.5534,0,0,0,-0.5971,-0.5951,-0.5895,-0.604,-0.5974,-0.579,-0.5872,-0.569,-0.5673,-0.562,-0.5604,-0.5595,-0.5571,-0.5533,-0.5532,-0.531,-0.5309,0,0,-0.5981,-0.6012,-0.5907,-0.5884,-0.5919,-0.5878,-0.5867,-0.568,-0.5662,-0.5603,-0.5589,-0.5567,-0.5532,-0.553,-0.531,-0.531,0,0,0,-0.6015,-0.6019,-0.5968,-0.5894,-0.5861,-0.5873,-0.586,-0.5671,-0.5651,-0.5586,-0.5565,-0.5531,-0.5528,-0.5311,-0.531,-0.5302,0,0,0,-0.6021,-0.6039,-0.5973,-0.599,-0.5864,-0.5764,-0.5855,-0.5664,-0.5642,-0.5566,-0.5531,-0.5526,-0.5312,-0.5311,-0.5304,-0.529,0,0,0,-0.6053,-0.6043,-0.6019,-0.5992,-0.5913,-0.5767,-0.5736,-0.5659,-0.5629,-0.5534,-0.5525,-0.5313,-0.5311,-0.5305,-0.5293,-0.5238,0,0,0,-0.6095,-0.6014,-0.6019,-0.592,-0.5915,-0.5766,-0.5737,-0.5624,-0.5542,-0.5529,-0.5312,-0.531,-0.5306,-0.5295,-0.524,-0.5193,-0.5179,0,0,-0.6009,-0.6005,-0.5944,-0.5943,-0.5801,-0.5792,-0.5646,-0.554,-0.5501,-0.5375,-0.5369,-0.5303,-0.5294,-0.5238,-0.5092,-0.5081,0,0,0,-0.5926,-0.5882,-0.5838,-0.5763,-0.5682,-0.5609,-0.5524,-0.5483,-0.5375,-0.5445,-0.5269,-0.5263,-0.5229,-0.5204,-0.5195,-0.5161,-0.5302,-0.5302,-0.5303,-0.5846,-0.5804,-0.5698,-0.5632,-0.5559,-0.547,-0.5405,-0.5335,-0.5312,-0.5272,-0.5232,-0.515,-0.5123,-0.5115,-0.5081,-0.5208,-0.5208,-0.5208,-0.5208,-0.5713,-0.5641,-0.5614,-0.5502,-0.5455,-0.5358,-0.5269,-0.5256,-0.5155,-0.5177,-0.5144,-0.5167,-0.5104,-0.5071,-0.5207,-0.5207,-0.5207,-0.5208,-0.5208,-0.5651,-0.5609,-0.5565,-0.5449,-0.5365,-0.53,-0.5205,-0.5166,-0.5129,-0.5098,-0.5048,-0.5048,-0.5038,-0.5078,-0.5078,-0.5077,-0.5077,-0.5077,-0.5077,-0.5603,-0.5553,-0.548,-0.5387,-0.5332,-0.5254,-0.5164,-0.5107,-0.5033,-0.5012,-0.5011,-0.4988,-0.5109,-0.5137,-0.5072,-0.5073,-0.5073,-0.5074,-0.5074,-0.5474,-0.5497,-0.5384,-0.5329,-0.5214,-0.513,-0.5084,-0.497,-0.4918,-0.4871,-0.4856,-0.4954,-0.4944,-0.4951,-0.4973,-0.487,-0.487,-0.487,-0.487,-0.5418,-0.5412,-0.5285,-0.5199,-0.511,-0.5056,-0.4923,-0.4851,-0.4779,-0.4743,-0.4753,-0.4781,-0.4791,-0.4775,-0.4787,-0.4806,-0.4663,-0.4662,-0.4662,-0.5334,-0.5317,-0.5212,-0.5147,-0.5054,-0.4974,-0.4846,-0.4743,-0.4667,-0.4653,-0.4711,-0.472,-0.4765,-0.4784,-0.4766,-0.4785,-0.482,0,0]},{"header":{"parameterUnit":"m.s-1","parameterCategory":1,"la1":30.2992,"la2":30.254,"lo1":-89.0895,"lo2":-89.0443,"dy":0.0025,"dx":0.0025,"nx":19,"ny":19,"refTime":"2026-03-22T03:00:00:Z","depth":0,"parameterNumber":3,"parameterNumberName":"V-component_of_WINDS"},"data":[0,0,0,3.8027,3.8028,3.8079,3.8079,3.8164,3.8165,0,0,0,0,0,0,0,0,0,0,0,3.8027,3.8028,3.8027,3.8029,3.8079,3.8079,3.8164,3.8165,0,0,0,0,0,0,0,0,0,0,0,3.8026,3.8027,3.8029,3.8029,3.8079,3.8079,3.8164,3.8118,0,0,0,0,0,0,0,0,0,0,3.8066,3.808,3.8027,3.8029,3.8029,3.8078,3.8079,3.8116,3.8121,3.8152,0,3.8184,0,3.8176,3.8173,3.8173,0,0,0,3.8017,3.8075,3.8076,3.8029,3.803,3.8078,3.8053,3.8118,3.8125,3.8159,3.8185,3.8187,3.8178,3.8173,3.8174,3.8393,3.8395,0,0,3.8014,3.8043,3.8072,3.8081,3.8076,3.8051,3.8054,3.8122,3.8151,3.8185,3.8189,3.8179,3.8174,3.8175,3.8392,3.8394,0,0,0,3.8014,3.8042,3.804,3.8078,3.8085,3.8053,3.8057,3.8148,3.8145,3.819,3.818,3.8175,3.8176,3.839,3.8392,3.8501,0,0,0,3.8012,3.8041,3.8039,3.8057,3.8085,3.8118,3.8082,3.8141,3.8147,3.818,3.8175,3.8177,3.8388,3.8391,3.8494,3.8548,0,0,0,3.8018,3.8042,3.8054,3.8059,3.8081,3.8116,3.8117,3.8141,3.8142,3.8173,3.8177,3.8387,3.8391,3.8488,3.8538,3.8618,0,0,0,3.8033,3.8147,3.8056,3.818,3.8081,3.8182,3.8116,3.8188,3.8228,3.8175,3.8388,3.8392,3.8486,3.8532,3.8612,3.8694,3.873,0,0,3.8193,3.8167,3.8237,3.8158,3.8283,3.8172,3.8312,3.8319,3.8294,3.8361,3.8366,3.8497,3.8538,3.8617,3.8912,3.8941,0,0,0,3.8298,3.835,3.8376,3.8416,3.8426,3.8439,3.8422,3.8425,3.8481,3.8335,3.8543,3.8567,3.8612,3.865,3.8675,3.8714,3.841,3.8409,3.8409,3.8567,3.8531,3.8646,3.8618,3.8657,3.8639,3.8668,3.8669,3.8618,3.8668,3.869,3.8873,3.8918,3.8937,3.8978,3.8725,3.8726,3.8726,3.8727,3.8802,3.8871,3.8803,3.8892,3.8853,3.8925,3.8913,3.8875,3.8937,3.8853,3.8891,3.8807,3.8969,3.9003,3.8734,3.8733,3.8732,3.8731,3.8731,3.8978,3.9006,3.9008,3.9064,3.9111,3.9075,3.914,3.91,3.9062,3.91,3.9121,3.9119,3.9116,3.9111,3.9112,3.9113,3.9113,3.9114,3.9114,3.9163,3.9162,3.9222,3.9244,3.9265,3.9289,3.9272,3.9292,3.9304,3.927,3.927,3.9218,3.899,3.8937,3.9124,3.9122,3.9121,3.912,3.9119,3.9422,3.9358,3.9452,3.9474,3.9497,3.9548,3.9495,3.954,3.955,3.9584,3.9522,3.9359,3.9329,3.931,3.9266,3.9527,3.9527,3.9527,3.9527,3.9575,3.9556,3.9645,3.9684,3.9716,3.9679,3.9788,3.9776,3.9753,3.9757,3.9712,3.9649,3.963,3.9612,3.9586,3.9544,3.987,3.9871,3.9871,3.9735,3.9718,3.9819,3.9797,3.9812,3.9826,3.9928,3.9975,3.9934,3.9884,3.9761,3.9747,3.9643,3.961,3.9562,3.9522,3.9445,0,0]}]]